Date String (YYYY-MM-DD hh:mm:ss) UTC,Instrument flags,absolute air pressure of the measurement (hPa),sample flow rate (lpm),inlet stack bypass flow (lpm),air temperature of the measurement (°C),ambient temperature measured by the external sensor (°C),aerosol sample conditioner tube jacket temperature (°C),OPC LED temperature (°C),internal box temperature (°C),relative humidity of the measurement (%),span deviation,mass concentration of particles derived from Lorenz-Mie calculation of OPC scattering (μg/m³),mass concentration of particles derived from Lorenz-Mie calculation of OPC scattering (μg/m³),mass concentration of particles derived from Lorenz-Mie calculation of OPC scattering (μg/m³)
DateTimeUTC,F1_M11,P_M11,Q1_M11,Q2_M11,T1_M11,T2_M11,T3_M11,T4_M11,T5_M11,U1_M11,ZSPAN_M11,X0_M11,X2_M11,X1_M11
2024-01-03 10:00:00,SystemResetWarning,0829.4,4.99,000.00,019.9,018.7,000.0,028.3,021.1,13.4,0005.2,0010.20,0005.96,0005.46
2024-01-03 10:01:00,SystemResetWarning,0829.4,5.00,000.00,019.9,018.7,000.0,028.3,021.1,13.4,0005.1,0010.12,0005.87,0005.37
2024-01-03 10:02:00,SystemResetWarning,0829.3,5.00,000.00,019.9,018.6,000.0,028.3,021.1,13.6,0005.0,0010.06,0005.72,0005.24
2024-01-03 10:03:00,SystemResetWarning,0829.3,5.00,000.00,019.8,018.6,000.0,028.3,021.1,13.6,0004.1,0009.91,0005.60,0005.13
2024-01-03 10:04:00,SystemResetWarning,0829.4,5.00,000.00,019.8,018.6,000.0,028.3,021.1,13.4,0004.9,0010.63,0005.54,0005.07
2024-01-03 10:05:00,SystemResetWarning,0829.3,5.00,000.00,019.8,018.6,000.0,028.3,021.1,13.6,0004.6,0011.25,0005.50,0005.05
2024-01-03 10:06:00,SystemResetWarning,0829.3,5.00,000.00,019.8,018.6,000.0,028.2,021.1,14.0,0003.7,0010.99,0005.46,0005.04
2024-01-03 10:07:00,SystemResetWarning,0829.3,5.00,000.00,019.8,018.6,000.0,028.2,021.1,14.3,0004.1,0010.95,0005.50,0005.07
2024-01-03 10:08:00,SystemResetWarning,0829.4,5.00,000.00,019.8,018.6,000.0,028.2,021.1,14.4,0002.6,0011.65,0005.56,0005.11
2024-01-03 10:09:00,SystemResetWarning,0829.3,5.01,000.00,019.8,018.6,000.0,028.2,021.1,14.6,0003.9,0012.32,0005.64,0005.15
2024-01-03 10:10:00,SystemResetWarning,0829.3,5.01,000.00,019.8,018.6,000.0,028.2,021.1,14.7,0005.3,0012.13,0005.65,0005.19
2024-01-03 10:11:00,SystemResetWarning,0829.3,4.99,000.00,019.8,018.6,000.0,028.2,021.1,14.7,0005.2,0012.04,0005.64,0005.20
2024-01-03 10:12:00,SystemResetWarning,0829.4,4.99,000.00,019.8,018.6,000.0,028.2,021.1,14.8,0001.4,0012.10,0005.67,0005.23
2024-01-03 10:13:00,SystemResetWarning,0829.4,5.00,000.00,019.8,018.6,000.0,028.2,021.1,14.8,0000.0,0012.14,0005.72,0005.26
2024-01-03 10:14:00,SystemResetWarning,0829.3,5.00,000.00,019.8,018.6,000.0,028.2,021.1,14.9,0000.0,0012.15,0005.81,0005.30
2024-01-03 10:15:00,SystemResetWarning,0829.3,5.00,000.00,019.8,018.6,000.0,028.2,021.1,14.9,0000.0,0011.75,0005.85,0005.34
2024-01-03 10:16:00,SystemResetWarning,0829.3,5.00,000.00,019.8,018.6,000.0,028.2,021.1,15.0,0000.0,0010.75,0005.82,0005.29
2024-01-03 10:17:00,SystemResetWarning,0829.3,5.00,000.00,019.8,018.6,000.0,028.1,021.1,14.9,0000.0,0010.59,0005.74,0005.21
2024-01-03 10:18:00,SystemResetWarning,0829.2,5.00,000.00,019.8,018.6,000.0,028.1,021.1,15.0,0000.0,0010.67,0005.70,0005.19
2024-01-03 10:19:00,SystemResetWarning,0829.2,5.00,000.00,019.8,018.7,000.0,028.1,021.1,15.1,0000.0,0011.34,0005.72,0005.20
2024-01-03 10:20:00,SystemResetWarning,0829.2,5.01,000.00,019.8,018.7,000.0,028.1,021.1,15.1,0000.0,0011.28,0005.71,0005.24
2024-01-03 10:21:00,SystemResetWarning,0829.2,5.00,000.00,019.8,018.7,000.0,028.1,021.0,14.9,0000.0,0011.20,0005.82,0005.36
2024-01-03 10:22:00,SystemResetWarning,0829.2,4.99,000.00,019.7,018.7,000.0,028.1,021.0,14.4,0003.1,0011.55,0006.05,0005.53
2024-01-03 10:23:00,SystemResetWarning,0829.2,4.99,000.00,019.7,018.7,000.0,028.1,021.0,14.4,0003.8,0011.83,0006.24,0005.68
2024-01-03 10:24:00,SystemResetWarning,0829.2,5.00,000.00,019.7,018.6,000.0,028.1,021.0,14.5,0004.5,0012.13,0006.41,0005.85
2024-01-03 10:25:00,SystemResetWarning,0829.2,5.00,000.00,019.7,018.6,000.0,028.1,021.0,14.5,0004.9,0012.44,0006.57,0006.02
2024-01-03 10:26:00,SystemResetWarning,0829.2,5.00,000.00,019.7,018.6,000.0,028.1,021.0,14.6,0004.8,0012.74,0006.70,0006.17
2024-01-03 10:27:00,SystemResetWarning,0829.2,5.00,000.00,019.7,018.6,000.0,028.1,021.0,14.6,0004.9,0013.05,0006.89,0006.34
2024-01-03 10:28:00,SystemResetWarning,0829.2,5.00,000.00,019.7,018.6,000.0,028.1,020.9,14.3,0005.0,0013.48,0007.20,0006.61
2024-01-03 10:29:00,SystemResetWarning,0829.3,5.00,000.00,019.7,018.5,000.0,028.1,020.9,14.0,0005.4,0014.06,0007.44,0006.79
2024-01-03 10:30:00,SystemResetWarning,0829.3,5.00,000.00,019.7,018.5,000.0,028.1,020.9,13.9,0005.5,0014.22,0007.59,0006.92
2024-01-03 10:31:00,SystemResetWarning,0829.3,5.00,000.00,019.6,018.5,000.0,028.1,020.9,14.0,0005.4,0013.84,0007.75,0007.05
2024-01-03 10:32:00,SystemResetWarning,0829.2,5.00,000.00,019.6,018.5,000.0,028.1,020.9,14.1,0005.6,0014.03,0007.88,0007.16
2024-01-03 10:33:00,SystemResetWarning,0829.2,5.00,000.00,019.6,018.5,000.0,028.0,020.9,14.2,0005.7,0014.77,0007.92,0007.22
2024-01-03 10:34:00,SystemResetWarning,0829.2,5.00,000.00,019.6,018.5,000.0,028.0,020.9,14.3,0005.8,0015.03,0007.85,0007.19
2024-01-03 10:35:00,SystemResetWarning,0829.2,5.00,000.00,019.6,018.5,000.0,028.0,020.9,14.3,0005.7,0015.45,0007.76,0007.11
2024-01-03 10:36:00,SystemResetWarning,0829.2,5.00,000.00,019.6,018.5,000.0,028.0,020.9,14.3,0005.4,0015.51,0007.72,0007.09
2024-01-03 10:37:00,SystemResetWarning,0829.2,5.00,000.00,019.6,018.4,000.0,028.0,020.9,14.2,0005.5,0015.07,0007.65,0007.04
2024-01-03 10:38:00,SystemResetWarning,0829.2,5.00,000.00,019.6,018.4,000.0,028.0,020.9,14.2,0005.7,0015.25,0007.64,0006.99
2024-01-03 10:39:00,SystemResetWarning,0829.2,5.00,000.00,019.6,018.4,000.0,028.0,020.8,14.3,0005.7,0015.60,0007.59,0006.93
2024-01-03 10:40:00,SystemResetWarning,0829.2,4.99,000.00,019.6,018.4,000.0,028.0,020.8,14.3,0005.4,0016.91,0007.49,0006.85
2024-01-03 10:41:00,SystemResetWarning,0829.2,5.00,000.00,019.5,018.4,000.0,028.0,020.8,14.4,0005.4,0016.15,0007.34,0006.73
2024-01-03 10:42:00,SystemResetWarning,0829.2,5.00,000.00,019.5,018.4,000.0,028.0,020.8,14.4,0005.4,0015.64,0007.14,0006.54
2024-01-03 10:43:00,SystemResetWarning,0829.2,5.00,000.00,019.5,018.4,000.0,028.0,020.8,14.3,0005.4,0015.72,0006.97,0006.36
2024-01-03 10:44:00,SystemResetWarning,0829.2,5.00,000.00,019.5,018.4,000.0,027.9,020.8,14.3,0005.1,0015.11,0006.84,0006.22
2024-01-03 10:45:00,SystemResetWarning,0829.2,5.00,000.00,019.5,018.4,000.0,027.9,020.8,14.2,0005.2,0015.10,0006.77,0006.15
2024-01-03 10:46:00,SystemResetWarning,0829.2,5.00,000.00,019.5,018.4,000.0,027.9,020.8,14.2,0005.4,0014.83,0006.79,0006.17
2024-01-03 10:47:00,SystemResetWarning,0829.2,5.00,000.00,019.5,018.4,000.0,027.9,020.8,14.4,0005.5,0014.31,0006.78,0006.15
2024-01-03 10:48:00,SystemResetWarning,0829.2,5.00,000.00,019.5,018.4,000.0,027.9,020.8,14.5,0005.2,0014.40,0006.77,0006.10
2024-01-03 10:49:00,SystemResetWarning,0829.2,5.00,000.00,019.5,018.4,000.0,027.9,020.8,14.3,0005.0,0014.11,0006.70,0006.07
2024-01-03 10:50:00,SystemResetWarning,0829.2,5.00,000.00,019.5,018.4,000.0,027.9,020.8,14.2,0005.0,0013.61,0006.57,0005.99
2024-01-03 10:51:00,SystemResetWarning,0829.2,5.00,000.00,019.5,018.4,000.0,027.9,020.7,14.1,0005.1,0012.23,0006.51,0005.96
2024-01-03 10:52:00,SystemResetWarning,0829.2,5.00,000.00,019.5,018.4,000.0,027.9,020.8,14.2,0004.7,0011.82,0006.53,0005.98
2024-01-03 10:53:00,SystemResetWarning,0829.2,5.00,000.00,019.5,018.4,000.0,027.9,020.8,14.5,0004.3,0011.95,0006.57,0006.04
2024-01-03 10:54:00,SystemResetWarning,0829.3,5.00,000.00,019.5,018.5,000.0,027.9,020.8,14.6,0003.8,0012.11,0006.61,0006.09
2024-01-03 10:55:00,SystemResetWarning,0829.2,5.01,000.00,019.5,018.5,000.0,027.9,020.8,14.5,0002.5,0012.40,0006.61,0006.11
2024-01-03 10:56:00,SystemResetWarning,0829.2,5.00,000.00,019.5,018.4,000.0,027.9,020.8,14.4,0003.2,0012.85,0006.63,0006.11
2024-01-03 10:57:00,SystemResetWarning,0829.2,4.99,000.00,019.5,018.4,000.0,027.9,020.8,14.2,0000.7,0013.04,0006.64,0006.10
2024-01-03 10:58:00,SystemResetWarning,0829.2,4.99,000.00,019.5,018.4,000.0,027.8,020.8,14.2,0003.2,0013.64,0006.60,0006.07
2024-01-03 10:59:00,SystemResetWarning,0829.2,5.00,000.00,019.5,018.4,000.0,027.8,020.8,14.3,0004.2,0014.19,0006.60,0006.06
